Regional Weather Roundup
Issued by NWS Upton, NY

Current Version | Previous Version | Graphics & Text | Print | Product List | Glossary Off
Versions: 1 2 3 4 5 6 7 8 9 10 11 12 13 14 15 16 17 18 19 20 21 22 23 24 25 26 27

000
ASUS41 KOKX 210608
RWROKX

REGIONAL WEATHER ROUNDUP
NATIONAL WEATHER SERVICE NEW YORK NY
100 AM EST SAT JAN 21 2017

NOTE: "FAIR" INDICATES FEW OR NO CLOUDS BELOW 12,000 FEET WITH NO
SIGNIFICANT WEATHER AND/OR OBSTRUCTIONS TO VISIBILITY.

NYZ071-072-176-178-NJZ106-104-210700-
NEW YORK CITY METRO AREA

CITY           SKY/WX    TMP DP  RH WIND       PRES   REMARKS
Central Park   CLOUDY    42  40  92 VRB7      29.94S FOG
Wall St Helipt CLOUDY    42  40  92 W6        29.94S
LaGuardia APRT CLOUDY    44  40  85 SW7       29.92S
Kennedy INTL   CLOUDY    43  43 100 S6        29.94S FOG
Breezy Point     N/A     41 N/A N/A SW2         N/A
Newark/Liberty DRIZZLE   42  41  96 SW5       29.93S FOG
Teterboro      CLOUDY    42  41  96 S7        29.92S FOG
$$

NYZ177-179-078>081-210700-
LONG ISLAND NEW YORK

CITY           SKY/WX    TMP DP  RH WIND       PRES   REMARKS
Jones Beach      N/A     41 N/A N/A SW3         N/A
Matinecock PT  NOT AVBL
Farmingdale    LGT RAIN  42  41  96 SW5       29.92R FOG
MacArthur/ISP  LGT RAIN  42  41  96 SW6       29.91S FOG
Shirley        LGT RAIN  42  42 100 W3        29.92S FOG
Westhampton    LGT RAIN  42  41  96 W3        29.93R FOG
Southampton    NOT AVBL
Bridgehampton  NOT AVBL
East Hampton   CLOUDY    42  42  97 CALM      29.90F
Montauk          N/A     43  42  97 CALM      29.91F
$$

NYZ052-065-067-210700-
HUDSON VALLEY

CITY           SKY/WX    TMP DP  RH WIND       PRES   REMARKS
White Plains   FOG       39  37  92 CALM      29.90R VSB 3/4
Newburgh       LGT RAIN  37  37 100 CALM      29.90S FOG
Montgomery     CLOUDY    39  37  92 CALM      29.88S FOG
Poughkeepsie   CLOUDY    37  36  96 CALM      29.90S FOG
Albany         CLOUDY    39  34  82 S7        29.86F WCI  34
$$

NJZ001-105-106-008-010-013-015-019>022-104-210700-
NEW JERSEY

CITY           SKY/WX    TMP DP  RH WIND       PRES   REMARKS
Newark/Liberty DRIZZLE   42  41  96 SW5       29.93S FOG
Teterboro      CLOUDY    42  41  96 S7        29.92S FOG
Caldwell       CLOUDY    41  40  96 SW5       29.93S FOG
Somerville     CLOUDY    41  39  93 CALM      29.91S FOG
Linden         CLOUDY    42  40  93 CALM      29.93S FOG
Sussex         CLOUDY    38  38 100 SW5       29.90S FOG     WCI  34
Andover          N/A     38  37  97 CALM      29.90F
Trenton        CLOUDY    41  41 100 CALM      29.93R FOG
Millville      CLOUDY    43  43 100 CALM      29.92S FOG
Atlantic City  CLOUDY    43  41  93 CALM      29.93R FOG
Wrightstown    CLOUDY    41  40  96 CALM      29.90F
Toms River     CLOUDY    41  41 100 CALM      29.94S
Belmar         CLOUDY    41  40  96 CALM      29.94S FOG
$$

PAZ047>061-062-071-210700-
EASTERN PENNSYLVANIA

CITY           SKY/WX    TMP DP  RH WIND       PRES   REMARKS
Philadelphia   CLOUDY    42  40  92 CALM      29.93F FOG
Allentown      CLOUDY    40  38  93 CALM      29.91F FOG
Scranton       CLOUDY    39  38  96 CALM      29.86F
$$

CTZ002-004>006-009-010-012-RIZ004-006-007-MAZ004-011-015-210700-
SOUTHERN NEW ENGLAND
 IN CT

CITY           SKY/WX    TMP DP  RH WIND       PRES   REMARKS
Bradley INTL   CLOUDY    37  36  96 S3        29.90F FOG
Hartford       CLOUDY    37  37 100 CALM      29.90F FOG
Danbury        CLOUDY    37  36  96 SW3       29.91S FOG
Wtrbury/Oxford CLOUDY    36  34  93 CALM      29.89S
Bridgeport     CLOUDY    41  38  89 CALM      29.92R
Meriden        CLOUDY    39  36  89 CALM      29.90F
New Haven      CLOUDY    40  38  93 CALM      29.91S
Chester        CLOUDY    37  37 100 CALM      29.89F FOG
Groton         CLOUDY    42  40  92 E3        29.90F
Wilimantic     CLOUDY    38  36  92 NE3       29.91F FOG

 IN RI

CITY           SKY/WX    TMP DP  RH WIND       PRES   REMARKS
Providence     CLOUDY    39  32  76 CALM      29.92F
Block Island   NOT AVBL
Westerly       CLOUDY    43  38  82 SE7       29.91F
 IN MA

CITY           SKY/WX    TMP DP  RH WIND       PRES   REMARKS
Boston         CLOUDY    38  34  85 SW10      29.92S WCI  31
Worcester      CLOUDY    33  31  92 SW6       29.87F FOG     WCI  28
Westfield      CLOUDY    36  35  96 SE3       29.89F
Provincetown   CLOUDY    39  34  82 S3        29.93F
Nantucket      CLOUDY    41  33  73 S6        29.93F
$$

ANZ330-335-338-340-345-350-353-355-210700-
COASTAL MARINE OBSERVATIONS


STATION/POSITION TIME  SKY/WX   TEMP    WIND        PRES    VSBY  WAVE
                                AIR SEA DIR/SP/G                  HT/PER
                 (UTC)          (F)     (DEG/KT/KT) (MB)    (MI)  (FT/S)
NY HARB ENTRANCE 0450            43 44  200/  2/  4 1013.4          3/12
20 S FIRE ISLAND 0550            45 45  240/  6/  6 1013.2          4/12
GREAT SOUTH BAY  NOT AVBL
23 SSW MONTAUK P 0450            46 47  190/  8/ 10 1013.6          3/11
15 E BARNEGAT LI 0530               47                N/A           4/13
HUDSON CANYON    0450            50 51              1013.2          5/12
KINGS POINT      0542               39              1013.1
EXECUTION ROCKS  0545            39      CALM  /  2   N/A
CENTRAL LI SOUND 0500            41     100/  4/  6   N/A           0
EASTERN LI SOUND NOT AVBL
ROBBINS REEF     0536                   180/  5/  5 1013.7
$$


>>>>>>>>>>>>>>>>>>>>>>>>>>>> KEY <<<<<<<<<<<<<<<<<<<<<<<<<<<
>                                                          <
>     SKY/WX - Sky Condition/Present Weather               <
>     TMP    - Temperature in Fahrenheit                   <
>     DP     - Dew Point in Fahrenheit                     <
>     RH     - Relative Humidity in Percent                <
>     WIND   - Direction (from) and Speed in MPH           <
>     PRES   - Mean Sea Level Pressure (inches of Hg)      <
>     WCI    - Wind Chill Index                            <
>     VSB    - VISIBILITY IN MILES                         <
>     HX     - HEAT INDEX                                  <
>     TC     - TEMPERATURE IN CELSIUS                      <
>     VRB    - VARIABLE WIND DIRECTION                     <
>                                                          <
>>>>>>>>>>>>>>>>>>>>>>>>>>>> KEY <<<<<<<<<<<<<<<<<<<<<<<<<<<




USA.gov is the U.S. government's official web portal to all federal, state and local government web resources and services.